Tracking 30995 objects as of 6-Jul-2025
HD Live streaming from Space Station
objects crossing your sky now

DELTA 1 DEB

Track DELTA 1 DEB now!
10-day predictions


NORAD ID: 12266
Int'l Code: 1978-026DK
Perigee: 806.1 km
Apogee: 1,014.2 km
Inclination: 98.7 °
Period: 103.1 minutes
Semi major axis: 7281 km
RCS: 0.0032 m2 (small)
Launch date: March 5, 1978
Source: United States (US)
Launch site: AIR FORCE WESTERN TEST RANGE (AFWTR)

Note: This is SATELLITE DEBRIS
Your satellite tracking list
Your tracking list is empty




NASA's NSSDC Master Catalog

Two Line Element Set (TLE):
1 12266U 78026DK  25186.38201962  .00001250  00000-0  84523-3 0  9996
2 12266  98.7346 345.6931 0142898 284.7554  73.7812 13.97340714235449
Source of the keplerian elements: AFSPC